Погода в Оленегорске

Россия / Мурманская область     68°08′31″N   33°16′01″E
темп.,
°C
ветер,
м/с
пор.,
м/с
влажн.,
%
обл.,
%
осадки,
мм/ч
давл.,
гПа
погр.,
м
2 декабря, чт
чт200:00−5всв81770100 0.1 9941232
03:00−5всв91868100 0.1 9951264
06:00−5всв81768100 0.0 9961156
09:00−5всв71475100 0.0 998922
12:00−5св6137899 0.1 1000701
15:00−6св6148599 0.2 1001559
18:00−7св4128676 0.0 1003348
21:00−10ссв399338 0.0 1005223
3 декабря, пт
пт300:00−13с349897 0.0 100653
03:00−14с239891 0.0 100742
06:00−15с2299100 0.0 100812
09:00−16с119979 0.0 10109
12:00−18ссз119967 0.0 10129
15:00−18ссз119937 0.0 10149
18:00−19ссз009938 0.0 10159
21:00−19ююз0010069 0.0 10179
4 декабря, сб
сб400:00−19ююз0010071 0.0 10189
03:00−19ююв0110074 0.0 10199
06:00−19ю1110079 0.0 102010
09:00−20ю0010074 0.0 102110
12:00−20ююв1110074 0.0 10229
15:00−20ю0010075 0.0 102310
18:00−20ююз0010078 0.0 10249
21:00−21юз0010083 0.0 102510
5 декабря, вс
вс500:00−21зюз0010083 0.0 102710
03:00−21юз0010085 0.0 10279
06:00−21ююз0010079 0.0 102710
09:00−21ююз1110041 0.0 102810
12:00−21ю1110025 0.0 102919
15:00−21ю2210012 0.0 102923
18:00−21ю22955 0.0 102929
21:00−21ю22915 0.0 102924
6 декабря, пн
пн600:00−21ю22894 0.0 102930
03:00−21ююз22915 0.0 103032
06:00−21ююз22965 0.0 103031
09:00−21ююз2310021 0.0 103045
12:00−20ююз339720 0.0 103048
15:00−20ююз33915 0.0 102948
18:00−21ю239146 0.0 102940
21:00−19ю3589100 0.0 102883